Probability
3 3 3 3 0 0 0 0 0 0 0 0 0 0 0 0 0 0 0 0 0 0 0 0 0 0 0 0 0 0 0 0 0 0 0 0 0 0 0 0 0 0 0
0 0 0 0 0 0 0 0 0 0 0 0 0 0 0 0 0 0 0 0 0 0 0 0 0 0 0 0 0 0 0 0 0 0 0 0 0 0 0 0 0 0 0
0 0 0 0 0 0 0 0 0 0 0 0 0 0 0 0 0 0 0 0 0 0 0 0 0 0 0 0 0 0 0 0 0 0 0 0 0 0 0 0 0 0 0
0 0 0 0 0 0 0 0 0 0 0 0 0 0 0 0 0 0 0 0 0 0 0 0 0 0 0 0 0 0 0 0 0 0 0 0 0 0 0 0 0 0 0
0 0 0 0 0 0 0 0 0 0 0 0 0 0 0 0 0 0 0 0 0 0 0 0 0 0 0 0 0 0 0 0 0 0 0 0 0 0 0 0 0 0 0
0 0 0 0 0 0 0 0 0 0 0 0 0 0 0 0 0 0 0 0 0 0 0 0 0 0 0 0 0 0 0 0 0 0 0 0 0 0 0 0 0 0 0
0 0 0 0 0 0 0 0 0 0 0 0 0 0 0 0 0 0 0 0 0 0 0 0 0 0 0 0 0 0 0 0 0 0 0 0 0 0 0 0 0 0 0
0 0 0 0 0 0 0 0 0 0 0 0 0 0 0 0 0 0 0 0 0 0 0 0 0 0 0 0 0 0 0 0 0 0 0 0 0 0 0 0 0 0 0
0 0 0 0 0 0 0 0 0 0 0 0 0 0 0 0 0 0 0 0 0 0 0 0 0 0 0 0 0 0 0 0 0 0 0 0 0 0 0 0 0 0 0
0 0 0 0 0 0 0 0 0 0 0 0 0 0 0 0 0 0 0 0 0 0 0 0 0 0 0 0 0 0 0 0 0 0 0 0 0 0 0 0 0 0 0
0 0 0 0 0 0 0 0 0 0 0 0 0 0 0 0 0 0 0 0 0 0 0 0 0 0 0 0 0 0 0 0 0 0 0 0 0 0 0 0 0 0 0
0 0 0 0 0 0 0 0 0 0 0 0 0 0 0 0 0 0 0 0 0 0 0 0 0 0 0 0 0 0 0 0 0 0 0 0 0 0 0 0 0 0 0
0 0 0 0 0 0 0 0 0 0 0 0 0 0 0 0 0 0 0 0 0 0 0 0 0 0 0 0 0 0 0 0 0 0 0 0 0 0 0 0 0 0 0
0 0 0 0 0 0 0 0 0 0 0 0 0 0 0 0 0 0 0 0 0 0 0 0 0 0 0 0 0 0 0 0 0 0 0 0 0 0 0 0 0 0 0
0 0 0 0 0 0 0 0 0 0 0 0 0 0 0 0 0 0 0 0 0 0 0 0 0 0 0 0 0 0 0 0 0 0 0 0 0 0 0 0 0 0 0
0 0 0 0 0 0 0 0 0 0 0 0 0 0 0 0 0 0 0 0 0 0 0 0 0 0 0 0 0 0 0 0 0 0 0 0 0 0 0 0 0 0 0
0 0 0 0 0 0 0 0 0 0 0 0 0 0 0 0 0 0 0 0 0 0 0 0 0 0 0 0 0 0 0 0 0 0 0 0 0 0 0 0 0 0 0
0 0 0 0 0 0 0 0 0 0 0 0 0 0 0 0 0 0 0 0 0 0 0 0 0 0 0 0 0 0 0 0 0 0 0 0 0 0 0 0 0 0 0
0 0 0 0 0 0 0 0 0 0 0 0 0 0 0 0 0 0 0 0 0 0 0 0 0 0 0 0 0 0 0 0 0 0 0 0 0 0 0 0 0 0 0
0 0 0 0 0 0 0 0 0 0 0 0 0 0 0 0 0 0 0 0 0 0 0 0 0 0 0 0 0 0 0 0 0 0 0 0 0 0 0 0 0 0 0
0 0 0 0 0 0 0 0 0 0 0 0 0 0 0 0 0 0 0 0 0 0 0 0 0 0 0 0 0 0 0 0 0 0 0 0 0 0 0 0 0 0 0
0 0 0 0 0 0 0 0 0 0 0 0 0 0 0 0 0 0 0 0 0 0 0 0 0 0 0 0 0 0 0 0 0 0 0 0 0 0 0 0 0 0 0
0 0 0 0 0 0 0 0 0 0 0 0 0 0 0 0 0 0 0 0 0 0 0 0 0 0 0 0 0 0 0 0 0 0 0 0 0 0 0 0 0 0 0
0 0 0 0 0 0 0 0 0 0 0 0 0 0 0 0 0 0 0 0 0 0 0 0 0 0 0 0 0 0 0 0 0 0 0 0 0 0 0 0 0 0 0
0 0 0 0 0 0 0 0 0 0 0 0 0 0 0 0 0 0 0 0 0 0 0 0 0 0 0 0 0 0 0 0 0 0 0 0 0 0 0 0 0 0 0
0 0 0 0 0 0 0 0 0 0 0 0 0 0 0 0 0 0 0 0 0 0 0 0 0 0 0 0 0 0 0 0 0 0 0 0 0 0 0 0 0 0 0
Height
5774 5770 5767 5764 5761 5758 5754 5750 5747 5743 5740 5738 5735 5733 5730 5727 5724 5721 5719 5718 5716 5715 5713 5712 5711 5710 5710 5710 5709 5709 5708 5708 5708 5707 5707 5706 5707 5707 5708 5709 5710 5711 5712
5769 5766 5763 5760 5757 5754 5750 5746 5742 5739 5735 5733 5731 5729 5726 5723 5720 5717 5716 5714 5712 5711 5709 5708 5707 5706 5705 5705 5705 5704 5704 5703 5703 5703 5702 5702 5702 5702 5703 5704 5704 5705 5707
5766 5763 5760 5757 5754 5750 5747 5743 5739 5735 5732 5729 5727 5725 5722 5719 5717 5714 5713 5711 5709 5707 5706 5704 5703 5702 5702 5701 5700 5700 5699 5699 5698 5698 5698 5698 5697 5698 5698 5699 5699 5700 5701
5762 5759 5757 5754 5751 5748 5744 5740 5736 5733 5729 5727 5724 5722 5719 5716 5714 5712 5710 5708 5706 5704 5703 5701 5700 5699 5698 5697 5696 5696 5695 5695 5694 5694 5694 5693 5693 5693 5693 5694 5695 5695 5696
5759 5756 5753 5750 5748 5744 5741 5738 5734 5730 5727 5724 5722 5719 5716 5713 5711 5709 5706 5705 5703 5701 5699 5698 5697 5695 5694 5693 5692 5692 5691 5690 5690 5689 5689 5689 5689 5688 5689 5689 5690 5690 5690
5756 5753 5750 5748 5745 5742 5739 5735 5732 5728 5725 5722 5720 5717 5714 5711 5708 5706 5703 5701 5700 5698 5696 5695 5694 5692 5691 5690 5689 5688 5687 5686 5686 5685 5684 5684 5684 5684 5684 5684 5684 5685 5685
5752 5750 5748 5745 5742 5739 5736 5733 5729 5726 5723 5720 5718 5715 5712 5709 5706 5703 5701 5699 5697 5695 5693 5692 5690 5689 5687 5686 5685 5684 5683 5682 5682 5681 5681 5680 5680 5680 5680 5680 5679 5679 5679
5749 5747 5744 5742 5739 5736 5733 5730 5727 5724 5721 5718 5715 5713 5710 5707 5704 5701 5699 5696 5694 5692 5691 5689 5687 5686 5684 5683 5682 5681 5679 5678 5678 5677 5677 5676 5676 5676 5676 5675 5675 5675 5674
5745 5743 5741 5739 5737 5734 5731 5728 5725 5722 5719 5716 5713 5710 5707 5704 5702 5699 5696 5694 5692 5690 5689 5687 5685 5684 5682 5680 5679 5678 5677 5675 5674 5673 5673 5673 5672 5672 5671 5671 5670 5670 5670
5742 5740 5739 5737 5734 5732 5729 5726 5723 5720 5717 5714 5711 5708 5705 5703 5700 5697 5695 5693 5691 5689 5687 5685 5683 5681 5680 5678 5676 5675 5674 5673 5672 5671 5670 5669 5668 5668 5667 5667 5666 5666 5665
5739 5738 5736 5734 5732 5730 5727 5725 5722 5719 5716 5713 5710 5707 5704 5701 5698 5696 5693 5691 5689 5687 5686 5683 5681 5679 5677 5675 5674 5672 5671 5670 5669 5668 5667 5666 5665 5664 5663 5663 5662 5661 5661
5736 5735 5734 5732 5730 5728 5726 5723 5720 5717 5714 5711 5708 5705 5703 5700 5697 5694 5692 5690 5688 5686 5684 5682 5679 5677 5675 5673 5671 5670 5668 5667 5666 5664 5663 5662 5661 5660 5659 5658 5657 5657 5656
5734 5733 5731 5730 5728 5726 5724 5722 5719 5716 5713 5710 5707 5704 5701 5699 5696 5693 5691 5688 5686 5684 5682 5680 5677 5675 5673 5671 5669 5667 5665 5664 5662 5661 5660 5658 5657 5656 5655 5654 5653 5652 5651
5731 5730 5729 5728 5726 5724 5722 5720 5718 5715 5712 5709 5706 5703 5700 5698 5695 5692 5690 5687 5685 5682 5680 5678 5675 5673 5670 5668 5666 5664 5662 5660 5658 5657 5656 5654 5652 5651 5650 5648 5647 5646 5645
5729 5728 5727 5726 5724 5723 5721 5719 5716 5714 5711 5708 5705 5702 5699 5697 5694 5691 5688 5686 5683 5681 5678 5675 5673 5670 5667 5665 5662 5660 5658 5656 5654 5652 5651 5649 5648 5646 5644 5643 5641 5640 5639
5726 5726 5725 5724 5723 5721 5720 5718 5715 5713 5710 5707 5704 5700 5697 5695 5692 5689 5686 5684 5681 5679 5676 5673 5670 5667 5664 5661 5659 5656 5654 5652 5650 5648 5646 5644 5642 5641 5639 5637 5635 5634 5632
5725 5725 5724 5722 5721 5720 5718 5716 5714 5711 5708 5705 5702 5699 5696 5693 5690 5687 5684 5681 5679 5676 5673 5670 5667 5664 5660 5657 5655 5652 5649 5647 5645 5642 5640 5638 5636 5635 5633 5631 5629 5627 5625
5724 5723 5722 5721 5720 5719 5717 5715 5712 5710 5707 5704 5701 5698 5695 5692 5689 5686 5682 5679 5676 5673 5669 5666 5663 5659 5656 5653 5650 5647 5644 5641 5639 5636 5634 5632 5630 5628 5626 5624 5622 5620 5618
5723 5722 5721 5720 5718 5717 5715 5713 5711 5708 5706 5703 5700 5697 5693 5690 5687 5683 5680 5677 5673 5670 5666 5663 5659 5656 5652 5649 5645 5642 5639 5636 5633 5630 5628 5625 5623 5621 5619 5617 5615 5613 5611
5722 5721 5720 5718 5717 5716 5714 5712 5710 5707 5704 5701 5698 5695 5692 5688 5685 5682 5678 5674 5671 5667 5663 5659 5656 5652 5648 5645 5641 5638 5634 5631 5627 5624 5622 5619 5616 5614 5612 5609 5607 5605 5603
5720 5720 5718 5717 5716 5714 5712 5710 5708 5706 5703 5699 5696 5693 5690 5686 5683 5679 5675 5672 5668 5664 5660 5656 5652 5648 5644 5640 5636 5632 5629 5625 5622 5619 5616 5612 5609 5607 5604 5602 5600 5598 5595
5719 5718 5717 5716 5714 5712 5710 5708 5706 5703 5701 5697 5694 5691 5688 5684 5680 5676 5672 5668 5664 5660 5656 5652 5648 5644 5640 5635 5631 5627 5623 5620 5616 5613 5609 5606 5603 5600 5597 5595 5592 5590 5588
5717 5716 5715 5714 5713 5711 5709 5706 5704 5701 5698 5695 5692 5689 5685 5681 5678 5674 5669 5665 5661 5657 5653 5649 5644 5640 5635 5631 5626 5622 5618 5614 5610 5606 5603 5599 5596 5593 5590 5587 5585 5582 5579
5716 5715 5714 5713 5711 5710 5707 5705 5702 5699 5696 5693 5690 5686 5682 5679 5675 5671 5666 5662 5658 5654 5649 5645 5640 5636 5631 5626 5622 5617 5613 5608 5604 5600 5596 5592 5589 5585 5582 5579 5576 5573 5570
5714 5714 5713 5712 5710 5708 5705 5703 5700 5697 5694 5691 5687 5683 5680 5676 5672 5667 5663 5659 5655 5650 5645 5641 5636 5631 5626 5621 5617 5612 5607 5602 5598 5593 5589 5585 5581 5577 5574 5571 5567 5564 5561
5713 5712 5711 5710 5708 5706 5703 5701 5698 5695 5692 5688 5685 5681 5677 5673 5668 5664 5660 5656 5651 5646 5642 5637 5632 5627 5622 5617 5612 5607 5602 5597 5592 5587 5582 5578 5574 5570 5566 5562 5558 5555 5552
Wind_Speed
20 21 20 20 20 21 21 22 22 22 22 20 20 20 20 20 20 18 18 19 19 18 18 18 17 17 17 17 17 17 17 17 18 18 18 19 19 19 19 21 22 24 25
19 20 19 18 19 20 21 21 21 21 21 20 19 19 18 18 18 17 17 17 17 16 16 16 16 16 16 16 16 16 16 16 17 17 17 18 18 19 19 20 22 22 23
19 19 19 18 18 19 20 21 21 20 19 18 18 18 18 18 18 17 16 16 16 16 16 16 15 16 16 15 15 16 16 16 17 17 17 17 19 19 19 20 21 22 23
18 19 18 18 18 19 20 20 20 19 18 17 17 18 18 17 17 16 16 16 16 16 16 15 15 16 15 15 15 15 16 16 17 17 17 17 18 18 19 20 21 22 23
18 18 18 18 18 18 19 19 19 18 17 16 16 17 17 17 16 16 16 16 16 15 15 15 15 15 15 15 15 16 16 16 16 16 17 18 18 18 19 19 20 21 22
18 17 17 18 18 19 18 18 18 17 16 15 16 16 16 16 15 15 15 15 16 15 15 15 15 15 15 14 15 15 16 16 16 16 16 17 17 18 17 17 18 19 20
17 17 17 18 18 18 18 18 17 16 16 16 16 16 16 16 16 15 15 15 14 14 14 14 14 14 13 14 14 15 16 17 16 16 15 15 15 16 16 16 17 18 18
16 16 16 17 17 18 18 17 16 16 16 17 16 16 16 16 16 15 15 14 14 14 14 14 13 13 12 13 13 13 14 15 15 14 14 14 15 15 15 15 16 17 18
14 14 15 16 16 17 16 16 16 16 16 16 16 15 15 15 15 15 14 13 12 12 12 12 12 12 12 13 13 12 12 13 13 13 14 14 14 15 15 15 15 16 16
13 14 14 15 15 16 16 15 15 15 15 15 15 15 15 14 14 14 13 12 11 11 11 11 11 12 12 12 12 12 12 13 13 13 13 14 14 15 15 15 15 16 16
13 13 14 14 14 14 14 14 15 15 14 15 15 15 14 14 14 13 12 11 11 11 11 11 12 12 13 13 12 12 12 12 13 13 14 14 14 15 15 15 15 15 15
11 11 11 11 12 13 13 13 14 14 14 14 14 14 14 14 13 12 12 12 12 12 12 12 13 13 13 13 13 13 13 13 12 12 13 14 15 15 15 15 16 16 16
10 10 10 10 12 12 12 13 14 14 14 14 14 14 14 14 13 13 13 13 14 14 14 14 14 14 14 13 14 13 13 13 13 14 14 14 15 15 15 16 16 15 15
8 8 9 10 11 11 11 12 13 14 14 14 14 14 14 14 14 13 13 14 14 14 14 14 14 14 14 14 14 15 15 15 15 15 15 15 15 16 16 16 17 17 17
7 7 8 9 10 10 11 12 12 13 14 14 14 14 14 14 14 14 14 14 14 15 14 14 14 15 16 16 16 16 16 16 17 16 16 16 17 17 17 17 18 18 18
6 6 7 8 9 10 10 11 13 14 14 15 15 15 15 15 15 15 15 15 15 16 16 15 15 16 17 17 17 18 18 17 17 18 18 18 17 18 18 19 19 19 20
5 6 7 8 9 10 11 12 13 13 14 15 16 16 16 16 15 15 15 16 17 18 18 17 17 18 18 19 19 19 19 18 18 19 19 19 18 19 19 20 20 20 21
5 6 7 8 9 10 12 12 13 13 14 15 15 16 16 16 16 17 18 18 18 19 19 19 18 19 20 20 20 20 20 20 20 20 19 19 19 20 21 22 22 22 22
5 6 8 9 10 11 12 12 13 13 14 15 15 16 16 16 17 18 19 19 19 20 20 19 19 20 20 21 21 21 21 21 21 20 21 20 20 21 22 23 22 23 23
6 7 8 9 11 12 12 12 12 13 14 15 16 17 17 17 18 19 19 20 21 21 21 20 20 21 22 22 22 22 22 22 22 22 22 22 22 23 23 23 23 23 23
6 7 8 9 11 12 12 12 13 14 15 16 17 18 19 19 19 20 20 21 21 22 22 21 22 23 23 24 24 23 23 23 23 22 22 22 23 23 23 23 22 23 24
6 7 8 9 11 12 12 13 14 15 16 17 18 19 19 20 21 21 21 22 22 22 23 23 23 24 24 24 24 24 24 24 23 23 23 23 23 23 23 23 23 24 25
6 7 8 9 10 11 13 13 14 15 16 17 19 19 20 20 21 22 22 22 23 23 23 23 24 25 25 25 25 25 25 24 24 24 24 24 24 24 24 24 25 25 26
6 7 8 9 10 12 13 14 15 16 17 18 19 20 20 21 22 22 23 23 23 24 24 25 25 26 26 26 26 26 26 26 26 26 25 25 24 24 25 25 26 26 26
6 7 8 9 11 12 14 14 15 16 17 18 19 21 21 22 23 23 24 24 25 26 26 26 27 27 27 27 27 27 27 28 28 27 26 26 26 27 27 27 27 27 28
6 7 8 10 11 13 14 15 16 17 18 19 20 21 22 23 23 24 25 25 26 27 27 28 28 28 28 28 28 29 29 29 29 28 27 27 27 28 28 28 28 28 28
Wind_Direction
307 309 308 308 310 311 312 312 309 307 305 306 305 307 309 309 308 304 300 299 296 294 292 289 287 286 280 277 279 277 275 275 276 273 271 269 267 263 260 257 255 256 256
312 315 314 314 314 316 318 319 316 311 307 305 305 307 309 310 309 307 305 303 299 297 295 293 291 288 282 279 278 278 278 278 276 275 273 268 266 262 262 260 258 257 256
312 314 316 316 316 319 322 324 322 319 314 310 309 311 312 311 310 309 307 305 302 299 296 295 294 292 284 281 279 281 280 279 277 275 274 270 264 261 261 262 262 260 258
310 312 315 315 315 320 324 324 325 324 319 314 313 314 314 313 312 311 309 306 306 303 301 299 298 295 285 283 282 284 283 281 278 275 271 269 266 263 262 262 263 262 261
310 313 315 318 320 322 325 325 325 324 320 317 318 320 319 317 313 309 307 307 306 305 305 303 301 295 289 286 287 286 285 284 280 276 273 270 267 266 263 263 265 265 264
309 314 318 321 324 324 324 323 325 327 326 324 324 324 322 321 318 314 309 306 306 305 304 302 301 297 293 289 288 287 287 287 284 279 275 274 272 270 269 267 267 267 266
309 314 318 322 324 325 323 324 326 327 328 327 324 324 323 322 319 316 313 311 314 312 309 306 304 302 298 293 291 290 290 289 287 284 280 279 278 275 273 273 272 272 269
309 312 316 319 322 323 324 325 324 324 323 324 322 320 321 322 321 319 316 317 315 313 313 312 311 309 303 299 297 296 295 292 289 286 283 282 278 276 275 275 275 274 270
308 311 315 319 322 324 324 326 326 325 324 325 325 323 324 324 325 325 324 322 320 320 320 317 315 313 310 306 302 297 295 294 291 288 286 284 281 280 278 276 278 276 272
309 311 315 319 322 326 328 330 330 330 329 329 328 328 326 326 328 330 330 328 324 322 321 320 320 318 318 316 311 305 300 296 295 294 291 289 285 284 281 280 280 280 276
307 311 314 319 323 327 330 332 333 334 334 334 335 333 333 333 333 334 333 333 332 330 329 326 322 321 320 316 312 308 305 302 300 298 295 291 287 283 283 282 281 281 280
309 313 316 321 326 329 332 335 338 338 338 339 339 340 340 340 340 340 338 333 332 332 330 328 326 324 323 320 316 314 312 309 306 303 297 291 288 285 283 283 283 281 279
307 315 319 324 326 328 332 337 342 343 344 344 345 344 344 344 341 339 339 337 334 330 328 326 324 324 323 321 319 315 312 309 305 301 299 295 292 287 282 282 283 282 281
304 313 322 325 327 329 333 337 341 343 343 343 344 346 346 345 343 341 340 338 337 334 329 326 325 324 323 321 317 312 310 306 302 299 298 298 295 292 288 285 283 281 281
305 315 323 329 333 335 337 341 345 346 347 346 345 344 344 342 341 341 339 338 337 334 330 329 327 324 322 321 318 315 312 309 307 305 301 299 297 294 292 292 289 286 285
318 324 331 335 337 339 339 343 346 347 348 348 347 346 343 341 340 340 338 336 335 334 331 327 324 323 322 321 318 316 313 311 308 306 302 299 295 292 293 294 292 289 287
340 338 338 339 338 340 339 340 343 344 345 346 346 346 347 344 342 342 339 336 334 333 332 330 327 326 324 321 319 316 313 311 308 305 301 297 294 293 293 294 293 290 289
342 345 345 343 341 341 342 342 344 346 346 345 345 346 347 347 346 343 341 339 337 335 333 331 328 326 325 323 321 318 316 313 308 305 302 298 295 294 294 292 291 290 290
337 342 344 343 344 343 342 342 343 344 344 345 346 347 348 348 346 344 344 343 340 337 334 332 329 327 326 326 323 320 318 315 312 309 305 301 299 297 296 295 294 293 293
337 341 342 342 341 341 341 342 343 343 344 344 345 346 346 346 345 343 342 341 339 338 336 333 330 328 326 325 323 321 318 318 315 311 309 305 301 299 299 298 296 296 295
334 338 340 341 343 343 343 344 344 343 344 344 344 345 345 344 342 341 339 338 338 337 336 333 330 329 327 326 324 322 319 318 316 314 312 309 305 301 299 300 299 298 297
334 337 340 341 343 343 345 344 343 343 343 343 343 343 344 343 342 340 339 339 338 338 337 335 334 331 329 327 326 324 322 320 317 314 312 311 309 305 302 300 299 298 297
331 335 338 341 342 341 342 343 343 342 342 342 342 342 341 341 341 341 341 341 340 339 338 337 336 334 331 329 330 329 325 322 320 318 313 310 308 305 303 301 299 298 296
329 333 336 339 340 341 343 345 344 343 342 341 342 342 342 341 342 342 342 342 341 340 338 337 335 335 334 331 331 330 328 325 323 320 316 311 307 304 301 301 300 298 296
324 328 333 337 339 340 343 344 343 341 341 341 342 342 342 342 342 342 341 340 339 338 338 337 336 334 333 331 330 329 329 327 325 322 318 314 311 308 306 304 302 301 299
323 326 331 336 336 337 340 341 341 340 339 339 340 340 341 341 341 340 340 339 338 338 338 337 336 335 333 331 330 329 329 328 326 324 320 316 314 312 310 308 306 304 302